Location: Caltech
(34.1382°N, 118.1253°W)
Time: 09:38:22
(UTC-07:00)

CZ-4B DEB - Visible Passes

Search period start: 30 March 2017 00:00
Search period end: 09 April 2017 00:00
Orbit: 842 x 862 km, 99.0° (Epoch: 28 March)

Date Brightness Start Highest point End Pass type
(mag) Time Alt. Az. Time Alt. Az. Time Alt. Az.
30 Mar 6.8 03:28:36 10° ENE 03:31:24 14° E 03:33:57 11° ESE visible
30 Mar 4.2 05:06:58 10° N 05:12:27 62° WNW 05:15:59 22° SSW visible
31 Mar 7.0 03:19:09 10° E 03:19:49 10° E 03:20:29 10° E visible
31 Mar 4.1 04:55:28 10° N 05:01:02 80° WNW 05:04:32 23° SSW visible
01 Apr 4.2 04:44:01 10° NNE 04:49:35 80° ESE 04:53:05 24° S visible
02 Apr 4.6 04:32:37 10° NNE 04:38:08 62° ESE 04:41:38 23° S visible
03 Apr 5.0 04:21:18 10° NNE 04:26:40 48° E 04:30:10 21° SSE visible
03 Apr 5.6 06:03:03 10° NNW 06:06:55 20° WNW 06:10:47 10° WSW visible
04 Apr 5.5 04:10:03 10° NNE 04:15:10 37° E 04:18:43 18° SSE visible
04 Apr 5.3 05:51:11 10° NNW 05:55:36 25° WNW 05:59:59 10° WSW visible
05 Apr 5.9 03:58:53 10° NE 04:03:39 29° E 04:07:14 15° SSE visible
05 Apr 5.0 05:39:25 10° N 05:44:15 32° WNW 05:49:02 10° SW visible
06 Apr 6.3 03:47:51 10° NE 03:52:06 22° E 03:55:47 12° SE visible
06 Apr 4.7 05:27:44 10° N 05:32:52 40° WNW 05:37:49 11° SW visible
07 Apr 6.6 03:37:01 10° NE 03:40:33 17° E 03:44:04 10° SE visible
07 Apr 4.4 05:16:08 10° N 05:21:29 51° WNW 05:26:21 12° SW visible
08 Apr 6.8 03:26:32 10° ENE 03:28:59 13° E 03:31:24 10° ESE visible
08 Apr 4.2 05:04:35 10° N 05:10:05 66° WNW 05:14:52 14° SSW visible
